Overview Statistics Trail Chart Weather Telemetry Raw packets
 

This is the latest recevied weather packets stored in our database for station/object EW8GT-13. If no packets are shown the sender has not sent any weather packets the latest 10 day(s).

<< 1 2 3 4 5 6 7 >>
Time Temp. Humidity Pressure Rain* Wind** Luminosity Snow
1777804420 27.78° C 29% 1001.1 hPa - - - -
1777804059 27.78° C 30% 1001.1 hPa - - - -
1777803698 27.78° C 30% 1001.2 hPa - - - -
1777803336 27.78° C 30% 1001.4 hPa - - - -
1777802975 27.22° C 31% 1001.4 hPa - - - -
1777802614 26.67° C 31% 1001.5 hPa - - - -
1777802253 26.67° C 31% 1001.6 hPa - - - -
1777801892 26.67° C 30% 1001.6 hPa - - - -
1777801530 26.67° C 32% 1001.6 hPa - - - -
1777733388 16.67° C 43% 1006.4 hPa - - - -
1777733027 16.67° C 42% 1006.4 hPa - - - -
1777732665 17.22° C 43% 1006.5 hPa - - - -
1777732304 17.22° C 43% 1006.5 hPa - - - -
1777731943 17.22° C 42% 1006.6 hPa - - - -
1777731582 17.22° C 42% 1006.7 hPa - - - -
1777731221 17.78° C 42% 1006.7 hPa - - - -
1777730859 17.22° C 42% 1006.8 hPa - - - -
1777625001 9.44° C 43% 1008.1 hPa - - - -
1777624640 9.44° C 44% 1008.1 hPa - - - -
1777624278 9.44° C 43% 1008.1 hPa - - - -
1777623556 8.89° C 45% 1008.1 hPa - - - -
1777623195 8.89° C 45% 1008.2 hPa - - - -
1777622834 8.89° C 45% 1008.2 hPa - - - -
1777622472 8.89° C 45% 1008.1 hPa - - - -
1777622111 8.89° C 45% 1008.1 hPa - - - -

* Rain since midnight (hover to see other rain measurements)
** Current wind speed in m/s (hover to see current wind gust speed)